SL-16 DEB, 22338

Orbit data source: Space-Track

SL-16 DEB, 22338 is space debris in LEO originally from a launch on Fri, 25 Dec 1992 UTC launched from the Tyuratam Missile And Space Complex (TTMTR). Debris objects in space refer to the collection of defunct objects orbiting the Earth. Examples of debris include non-operational satellites, rocket bodies, and fragments generated from explosions, collisions, or faulty payload assembly.

Loading next visibility...
Identifier
22338, 1992-093AB
Orbit
LEO
Last TLE update
7 hours ago
Origin
Manufacturer
Unknown
Mission
Spacecraft
Bus & Motor
Unknown
Mass
Unknown
Launch date (UTC)
1992-12-25 (33 years ago)
Launch vehicle
Unknown
Launch site
Tyuratam Missile And Space Complex (TTMTR)
Object type
Payload
Rocket body
Debris
Shape & HBR
Unknown
Radar Cross Section
Small (<0.1 m²)

Expand to show TLE details & history

TLE from 7 hours ago
0 SL-16 DEB
1 22338U 92093AB  25186.96814259  .00001833  00000-0  27959-3 0  9997
2 22338  70.6131 170.5722 0072235 252.3773 139.2329 14.73756293704456
Epoch: 2025-07-05T23:14Z
TLE epoch observation values (Epoch: 2025-07-05T23:14:07.519Z)
Latitude
30.19041°
Longitude
-90.40837°
Altitude
690.996 km
Speed
7.493 km/s
True Right ascension
12h 09m 17s
True Declination
30° 02' 23"
Sunlit
Object was in daylight at epoch
Visualization orbit readout
Latitude
63.722°
Longitude
-57.67051°
Altitude
710.264 km
Speed
7.48 km/s
Apparent Right ascension
08h 32m 55s
Apparent Declination
29° 54' 16"
Sunlit
Object is in daylight
Visualization observer readout
Local Sidereal Time
17:53:23
Azimuth
325.516° NNW
Elevation
-10.97°
Doppler factor
1
Orbital elements
Apogee altitude
697.755 km
Perigee altitude
596.263 km
Semi-major axis
7,025.146 km
Eccentricity
0.00722
Inclination
70.6131°
RAAN
170.5722°
Arg. of periapsis
252.3773°
True anomaly
Unknown
Mean anomaly
139.2329°
Eccentric anomaly
Unknown
Mean motion
3.68604 °/min
Orbital period
97.67 mins
BSTAR
0.00027959
Loading maneuver chart data...
Loading SW <> Apogee altitude chart data...
Loading historical data...
Loading historical data...
Loading historical data...
Loading historical data...
Loading historical data...
Loading historical data...
Loading historical data...

SL-16 DEB Visibility forecast

Observer location: undefined°, undefined°

Span
Click to sort rows by Start time (UTC) header in descending order
Start Az.
Max El. time (UTC)
Max El. Az.
Max El.
End time (UTC)
End Az.
7 mins2025-07-06 09:24:58.601Z359.694° N2025-07-06 09:27:58.601Z48.175° ENE29.188°2025-07-06 09:31:58.601Z121.092° SE
5 mins2025-07-06 11:05:58.601Z292.992° NW2025-07-06 11:07:58.601Z258.569° W22.116°2025-07-06 11:10:58.601Z210.524° SW
6 mins2025-07-06 23:39:58.601Z159.51° S2025-07-06 23:42:58.601Z91.845° ESE30.829°2025-07-06 23:45:58.601Z45.243° ENE
6 mins2025-07-07 01:19:58.601Z262.482° W2025-07-07 01:22:58.601Z313.674° NW22.325°2025-07-07 01:25:58.601Z355.056° N
|